Flag for United Kingdom Weather past 2 weeks in Truro, England, United Kingdom

Now
61 °F

Partly sunny.


Feels Like: 61 °F
Forecast: 57 / 63 °F
Wind: 12 mph from Southwest

Location: Culdrose

Current Time: Aug 29, 2014 at 7:15:32 PM

Latest Report: Aug 29, 2014 at 6:50 PM


Visibility: N/A

Pressure: 30.01 "Hg

Humidity: 88%

Dew point: 57 °F

Location of TruroLocation

Historic Weather in Truro — Graph

°F

Truro temperature yesterday

Maximum temperature yesterday: 66 °F (at 2:50 PM)
Minimum temperature yesterday: 59 °F (at 12:50 AM)
Average temperature yesterday: 62 °F

Past Weeks' High & Low Weather Summary

 TemperatureHumidityPressure
High68 °F (Aug 26, 3:50 PM)100% (Aug 24, 7:50 PM)30.27 "Hg (Aug 24, 7:50 PM)
Low43 °F (Aug 24, 4:50 AM)48% (Aug 19, 11:50 AM)29.50 "Hg (Aug 26, 1:50 AM)
Average58 °F82%29.95 "Hg
* Reported Aug 14 5:50 PM — Aug 29 5:50 PM, Truro, Weather by CustomWeather, © 2014

Note: Actual official high and low records may vary slightly from our data, if they occured in-between our weather recording intervals... More about our weather records

Advertising

Truro weather history for previous 24 hours

 ConditionsComfort  
Time TempWeatherWind HumidityBarometerVisibility
5:50 PM
Aug 29
61 °FBroken clouds.12 mph88%30.01 "HgN/A
4:50 PM63 °FMostly cloudy.13 mph88%30.01 "HgN/A
3:50 PM63 °FMostly cloudy.15 mph88%30.01 "HgN/A
2:50 PM63 °FBroken clouds.15 mph88%30.01 "HgN/A
1:50 PM64 °FBroken clouds.14 mph88%30.01 "HgN/A
12:50 PM59 °FDrizzle. Broken clouds.14 mph100%29.98 "Hg2 mi
12:37 PM61 °FDrizzle. Broken clouds.12 mph94%29.98 "Hg2 mi
11:50 AM63 °FScattered showers. Mostly cloudy.14 mph88%29.98 "HgN/A
10:50 AM61 °FScattered showers. Broken clouds.12 mph88%29.98 "HgN/A
9:50 AM63 °FPartly sunny.13 mph83%29.95 "HgN/A
8:50 AM61 °FBroken clouds.8 mph88%29.95 "HgN/A
7:50 AM59 °FSprinkles. Partly sunny.15 mph88%29.95 "Hg4 mi
6:50 AM59 °FScattered showers. Partly cloudy.10 mph88%29.92 "HgN/A
5:50 AM59 °FScattered showers. Partly cloudy.15 mph88%29.92 "HgN/A
4:50 AM61 °FPassing clouds.14 mph88%29.89 "HgN/A
3:50 AM59 °FHaze.13 mph94%29.89 "HgN/A
2:50 AM61 °FPassing clouds.16 mph88%29.89 "HgN/A
1:50 AM61 °FHaze.16 mph88%29.89 "HgN/A
12:50 AM59 °FPassing clouds.15 mph94%29.92 "HgN/A
11:50 PM
Aug 28
59 °FHaze.10 mph88%29.89 "HgN/A
10:50 PM61 °FScattered showers. Passing clouds.17 mph88%29.92 "HgN/A
9:50 PM61 °FHaze.16 mph83%29.89 "HgN/A
8:50 PM61 °FHaze.15 mph83%29.89 "HgN/A
7:50 PM61 °FHaze.14 mph88%29.89 "HgN/A
Weather by CustomWeather, © 2014

See weather overviewHow to use our weather pages